Rutland, VT (05701)

5:09 AM EST on February 10, 2016 (GMT -0500)
NWS CO-OP RUTV1 | | Change Station
CLOSE
Current Station
Personal Weather Station
Location: Rutland, VT
Elevation: 620 ft
Nearby Weather Stations

Elev 620 ft 43.63 °N, 72.98 °W | Updated 4 seconds ago

Overcast
Overcast
25.4 °F
Feels Like 25 °F
N
0.0
Wind Variable Wind from WSW
Gusts 0.0 mph

Today
High -- | Low -- °F
--% Chance of Precip.
Yesterday
High -- | Low -- °F
Precip. -- in
Pressure 29.51 in
Visibility 10.0 miles
Clouds Mostly Cloudy 1800 ft
Overcast 2600 ft
Windchill 25 °F
Dew Point 22 °F
Humidity 88%
Rainfall 0.00 in
Snow Depth Not available.
6:58 AM 5:14 PM
Waxing Crescent, 4% visible
METAR KRUT 100955Z 00000KT 10SM BKN018 OVC026 M04/M07 A2951 RMK AO1
Pressure 29.51 in
Visibility 10.0 miles
Clouds Mostly Cloudy 1800 ft
Overcast 2600 ft
Windchill 25 °F
Dew Point 22 °F
Humidity 88%
Rainfall 0.00 in
Snow Depth Not available.
6:58 AM 5:14 PM
Waxing Crescent, 4% visible
METAR KRUT 100955Z 00000KT 10SM BKN018 OVC026 M04/M07 A2951 RMK AO1

10-Day Weather Forecast

Almanac

Astronomy

Feb. 10, 2016 Rise Set
Actual Time
Civil Twilight
Nautical Twilight
Astronomical Twilight
Moon
Length of Visible Light
Length of Day
Tomorrow will be .
, % of the Moon is Illuminated

Today's Extremes

State Highs State Lows

Community

WunderPhotos

Upload Photos

1,891,828 photos uploaded!

WunderBlog® & News

Nearby

Air Quality

  Air Quality AQ Index Pollutant
Not available.

Snow Depth

Station Depth Elevation

Earthquake Activity

City Distance Mag. Time & Date
Minimum magnitude displayed is 2.5.

Coastal Water Temperatures

Place Temperature

Stations

Nearby Weather Stations

Station Location Temp. Windchill Dew Point Humidity Wind Precip. Elev Updated Type
                   

Watches & Warnings

There are currently no watches in effect.